User: anonymous   Login
Location: Brno
(49.2000°N, 16.6330°E)
Time: 22:37:13
(UTC+02:00)
Language:

RESURS DK-1 - Orbit

View from above orbital plane
View from above orbital plane
View from above satellite
View from above satellite

Ground track
Ground track

The orbit data is extracted from the following two-line orbital elements,

1 29228U 06021A   14298.15886400  .00001510  00000-0  12582-3 0  3631
2 29228 069.9387 034.1868 0004407 345.5563 087.0117 15.00904987463070
Epoch (UTC): 25 October 2014 03:48:45
Eccentricity: 0.0004407
inclination: 69.9387°
perigee height: 561 km
apogee height: 567 km
right ascension of ascending node: 34.1868°
argument of perigee: 345.5563°
revolutions per day: 15.00904987
mean anomaly at epoch: 87.0117°
orbit number at epoch: 46307

The dashed part of the orbit path shows where the satellite is in the earth's shadow,  

DLR